Weather History for Telfer, WE

Change the Weather History Date:

Tuesday, November 20, 2012

  Actual Average Record
Temperature  
Mean Temperature 94 °F -  
Max Temperature 110 °F - - ()
Min Temperature 78 °F - - ()
Cooling Degree Days 29    
Growing Degree Days 44 (Base 50)    
Moisture  
Dew Point 52 °F    
Average Humidity 27    
Maximum Humidity 61    
Minimum Humidity 5    
Precipitation  
Precipitation 0.00 in - - ()
Sea Level Pressure  
Sea Level Pressure 29.74 in    
Wind  
Wind Speed 8 mph ()    
Max Wind Speed 14 mph    
Max Gust Speed -    
T = Trace of Precipitation, MM = Missing Value Source: Averaged Metar Reports

Daily Weather History Graph

Daily Weather History Graph

Search for Another Location

Airport:

Trip Planner

Search our weather history database for the weather conditions in past years. The results will help you decide how hot, cold, wet, or windy it might be!

Date:

Astronomy

Nov. 20, 2012 Rise Set
Actual Time 5:00 AM WST 6:13 PM WST
Civil Twilight 4:35 AM WST 6:37 PM WST
Nautical Twilight 4:07 AM WST 7:06 PM WST
Astronomical Twilight 3:37 AM WST 7:36 PM WST
Moon 11:11 AM WST (11/20) No Moon Set
Length of Visible Light 14h 01m
Length of Day
13h 13m
Waxing Crescent, 45% of the Moon is Illuminated
Nov 20
Waxing Crescent
Nov 20
First Quarter
Nov 28
Full
Dec 6
Last Quarter
Dec 13
New

Hourly Weather History & Observations

Time (WST) Temp. Heat Index Dew Point Humidity Pressure Visibility Wind Dir Wind Speed Gust Speed Precip Events Conditions
12:00 AM 87 °F - 65 °F 37% 29.71 in - NW 10.4 mph - -  
12:00 AM 87.8 °F 89.4 °F 64.4 °F 46% 29.77 in - NW 10.4 mph - N/A   Unknown
1:00 AM 86.0 °F 87.3 °F 64.4 °F 48% 29.74 in - WNW 9.2 mph - N/A   Unknown
2:00 AM 84 °F - 66 °F 45% 29.70 in - NW 5.8 mph - -  
2:00 AM 84.2 °F 86.6 °F 66.2 °F 55% 29.74 in - NW 5.8 mph - N/A   Unknown
3:00 AM 82 °F - 65 °F 46% 29.70 in - NW 3.5 mph - -  
3:00 AM 82.4 °F 83.9 °F 64.4 °F 54% 29.74 in - NW 3.5 mph - N/A   Unknown
4:00 AM 80.6 °F 82.3 °F 64.4 °F 58% 29.77 in - North 4.6 mph - N/A   Unknown
5:00 AM 79 °F - 64 °F 50% 29.73 in - NNW 8.1 mph - -  
5:00 AM 78.8 °F - 64.4 °F 61% 29.80 in - NNW 8.1 mph - N/A   Unknown
6:00 AM 79 °F - 62 °F 47% 29.76 in - NW 9.2 mph - -  
6:00 AM 78.8 °F - 62.6 °F 57% 29.80 in - NW 9.2 mph - N/A   Unknown
7:00 AM 84.2 °F 85.0 °F 62.6 °F 48% 29.83 in - WNW 11.5 mph - N/A   Unknown
8:00 AM 89 °F - 60 °F 27% 29.77 in - WNW 12.7 mph - -  
8:00 AM 89.6 °F 88.9 °F 59.0 °F 36% 29.83 in - WNW 12.7 mph - N/A   Unknown
9:00 AM 97 °F - 48 °F 11% 29.77 in - West 9.2 mph - -  
9:00 AM 96.8 °F - 48.2 °F 19% 29.83 in - West 9.2 mph - N/A   Unknown
10:00 AM 100.4 °F - 46.4 °F 16% 29.80 in - WSW 9.2 mph - N/A   Unknown
11:00 AM 105 °F - 40 °F 5% 29.74 in - SSW 6.9 mph - -  
11:00 AM 105.8 °F - 39.2 °F 10% 29.80 in - SSW 6.9 mph - N/A   Unknown
12:00 PM 107.6 °F - 39.2 °F 10% 29.77 in - SSW 6.9 mph - N/A   Unknown
1:00 PM 107.6 °F - 41.0 °F 10% 29.74 in - WNW 12.7 mph - N/A   Unknown
2:00 PM 107 °F - 42 °F 5% 29.68 in - NW 6.9 mph - -  
2:00 PM 107.6 °F - 41.0 °F 10% 29.74 in - NW 6.9 mph - N/A   Unknown
3:00 PM 108 °F - 42 °F 5% 29.66 in - NW 10.4 mph - -  
3:00 PM 107.6 °F - 42.8 °F 11% 29.71 in - NW 10.4 mph - N/A   Unknown
4:00 PM 109.4 °F - 41.0 °F 10% 29.68 in - West 9.2 mph - N/A   Unknown
5:00 PM 106 °F - 41 °F 5% 29.63 in - NW 8.1 mph - -  
5:00 PM 105.8 °F - 41.0 °F 11% 29.68 in - NW 8.1 mph - N/A   Unknown
6:00 PM 103 °F - 41 °F 6% 29.65 in - NW 5.8 mph - -  
6:00 PM 104.0 °F - 41.0 °F 12% 29.71 in - NW 5.8 mph - N/A   Unknown
7:00 PM 100.4 °F - 42.8 °F 14% 29.74 in - WNW 6.9 mph - N/A   Unknown
8:00 PM 99 °F - 45 °F 9% 29.70 in - WNW 12.7 mph - -  
8:00 PM 98.6 °F - 44.6 °F 16% 29.74 in - WNW 12.7 mph - N/A   Unknown
9:00 PM 97 °F - 45 °F 9% 29.71 in - NW 9.2 mph - -  
9:00 PM 96.8 °F - 44.6 °F 17% 29.77 in - NW 9.2 mph - N/A   Unknown
10:00 PM 93.2 °F 92.6 °F 59.0 °F 32% 29.77 in - NW 12.7 mph - N/A   Unknown
11:00 PM 91 °F - 66 °F 34% 29.72 in - NW 13.8 mph - -  
11:00 PM 91.4 °F 94.0 °F 66.2 °F 43% 29.77 in - NW 13.8 mph - N/A   Unknown